Regional Weather Roundup
Issued by NWS

Home | Current Version | Previous Version | Text Only | Print | Product List | Glossary On
Versions: 1 2 3 4 5 6 7 8 9 10 11 12 13 14 15 16 17 18 19 20 21 22 23 24 25 26 27 28 29 30 31 32 33 34 35 36 37 38 39 40 41 42 43 44 45 46 47 48 49 50
000
ASCA44 KEWX 220220
RWRMX

LATIN AMERICA AND CARIBBEAN REGIONAL WEATHER ROUNDUP
NATIONAL WEATHER SERVICE AUSTIN/SAN ANTONIO TX
800 PM CST TUE NOV 21 2017

NOTE: "FAIR" INDICATED FEW OR NO CLOUDS BELOW 12,000 FEET WITH NO
SIGNIFICANT WEATHER AND/OR OBSTRUCTIONS TO VISIBILITY.

BAJA CALIFORNIA

CITY           SKY/WX    TMP DP  RH WIND       PRES   REMARKS
LORETO         PTCLDY    79  59  50 N12       29.90R
LA PAZ         PTCLDY   N/A N/A N/A NE5       29.93
MEXICALI       PTCLDY    73  25  16 NW6       30.04
S.J. DEL CABO  PTCLDY    75  63  64 E3        29.93
TIJUANA        PTCLDY    70  43  37 CALM      30.04

NORTHWESTERN MEXICO

CITY           SKY/WX    TMP DP  RH WIND       PRES   REMARKS
CULIACAN       MOCLDY    73  61  64 CALM      29.88
DURANGO        PTCLDY    57  25  28 N6        30.19
GUAYMAS        MOCLDY    73  63  68 CALM      29.85
HERMOSILLO     MOCLDY    75  39  27 W5        29.93
CD. JUAREZ     PTCLDY    64  19  17 NE9       30.23
LOS MOCHIS     PTCLDY    72  59  64 NW8       29.90R
OBREGON        CLOUDY    72  50  46 SW3       29.86

NORTHEASTERN MEXICO

CITY           SKY/WX    TMP DP  RH WIND       PRES   REMARKS
CHIHUAHUA      PTCLDY    63  19  19 N13       30.20
MATAMOROS      MOCLDY    70  63  78 CALM      29.87
MONCLOVA         N/A    N/A N/A N/A MISG        N/A
MONTERREY      PTCLDY    72  50  46 W3        29.98
NUEVO LAREDO   CLEAR     68  52  56 CALM      29.93
PIEDRAS NEGRAS   N/A    N/A N/A N/A MISG        N/A
REYNOSA        PTCLDY    70  57  64 CALM      29.87
SALTILLO       CLEAR     63  43  48 CALM      30.14R
TORREON        PTCLDY    73  28  19 CALM      30.06
CD. VICTORIA   CLEAR     70  57  64 CALM      29.87R

WESTERN MEXICO

CITY           SKY/WX    TMP DP  RH WIND       PRES   REMARKS
AGUASCALIENTES CLEAR     64  32  29 S5        30.17
COLIMA         CLEAR     72  70  94 CALM      30.04R
DEL BAJIO      PTCLDY    66  39  37 W5        30.20R
GUADALAJARA    CLEAR     61  36  39 SW7       30.12
MANZANILLO     PTCLDY    82  72  69 NW7       29.86
MAZATLAN       PTCLDY    73  64  73 N5        29.88R
P. VALLARTA    PTCLDY   N/A N/A N/A S5          N/A
URUAPAN          N/A    N/A N/A N/A MISG        N/A
ZACATECAS      CLEAR     64  39  39 CALM      30.25

CENTRAL MEXICO

CITY           SKY/WX    TMP DP  RH WIND       PRES   REMARKS
CUERNAVACA       N/A    N/A N/A N/A MISG        N/A
MEXICO CITY    MOCLDY    64  45  48 E5        30.23R
MORELIA        PTCLDY    63  54  72 SW5       30.17
POZA RICA        N/A    N/A N/A N/A MISG        N/A
PUEBLA         CLEAR     54  39  58 CALM      30.23R
QUERETARO      CLEAR     63  37  39 W3        30.20R
S. LUIS POTOSI CLEAR     64  10  12 NW5       30.12R
TAMPICO        CLEAR     73  66  78 E12       29.83R
TOLUCA         PTCLDY    54  43  66 NW7       30.31

SOUTHERN MEXICO

CITY           SKY/WX    TMP DP  RH WIND       PRES   REMARKS
ACAPULCO       PTCLDY    82  72  69 SW3       29.86R
B. DE HUATULCO   N/A    N/A N/A N/A MISG        N/A
OAXACA         PTCLDY    64  48  55 W6        30.13R
P. ESCONDIDO     N/A    N/A N/A N/A MISG        N/A
VERACRUZ       CLEAR     73  68  83 SE5       29.85R
ZIHUATANEJO    PTCLDY    82  73  74 NE3       29.87

YUCATAN PENINSULA

CITY           SKY/WX    TMP DP  RH WIND       PRES   REMARKS
CAMPECHE       CLEAR     77  72  83 CALM      29.85R
CANCUN         CLEAR     68  68 100 NE2       29.91R
CHETUMAL       PTCLDY    77  72  83 CALM      29.90
CD. DEL CARMEN CLEAR    N/A N/A N/A NE7       29.88
COZUMEL        CLEAR     70  66  88 CALM      29.89R
MERIDA         PTCLDY    75  64  69 CALM      29.89S
MINATITLAN       N/A    N/A N/A N/A MISG        N/A
TAPACHULA      PTCLDY    75  72  88 NE2       29.89R
TUX. GUTIERREZ CLEAR     70  64  83 SW3       29.92R
VILLAHERMOSA   CLEAR     72  68  88 E5        29.88R

CENTRAL AMERICA

CITY           SKY/WX    TMP DP  RH WIND       PRES   REMARKS
MANAGUA        PTCLDY    79  73  83 CALM      29.83R

CARIBBEAN

CITY           SKY/WX    TMP DP  RH WIND       PRES   REMARKS
ARUBA          PTCLDY    82  77  83 E14       29.83S HX  91
CURACAO        PTCLDY    82  75  78 E13       29.86S
KINGSTON       PTCLDY    81  75  83 E8        29.86S
NASSAU         PTCLDY    75  70  83 CALM      29.94F
SAN JUAN       CLEAR     81  72  74 CALM      29.94S
SANTO DOMINGO  PTCLDY    75  73  94 CALM      29.92S
ST. THOMAS       N/A     77  73  88 MISG      29.96R

$$





USA.gov is the U.S. government's official web portal to all federal, state and local government web resources and services.